{"data":{"norad_id":61069,"intl_designator":"2024-164V","name":"STARLINK-32380","alt_names":[],"object_type":"PAYLOAD","status":"ACTIVE","operator":null,"country":"US","launch_date":"2024-09-13","launch_site_code":"AFWTR","launch_vehicle":null,"mission":null,"orbit_class":"UNKNOWN","rcs_meters":null,"size_class":null,"mass_kg":null,"dimensions":null,"purposes":["comms"],"wikipedia_slug":null,"has_3d_model":false,"image_url":null,"decayed_at":null,"tle_current":{"epoch":"2026-05-25T03:26:13.542720Z","epoch_age_seconds":58852,"freshness":"FRESH","line1":"1 61069U 24164V   26145.14321230  .00000560  00000+0  29817-4 0  9994","line2":"2 61069  53.1620  95.9516 0001284  83.8227 276.2921 15.31705155 95186","mean_motion":15.31705155,"eccentricity":0.0001284,"inclination_deg":53.162,"raan_deg":95.9516,"arg_perigee_deg":83.8227,"mean_anomaly_deg":276.2921,"bstar":2.9817e-5,"rev_number":9518,"period_min":94.012871556863,"perigee_km":469.84523464889,"apogee_km":471.60402231509,"semimajor_km":6848.861628482,"source":"CELESTRAK","updated_at":"2026-05-25T13:38:19.357429Z"}}}